TIME,DELAY(SENSOR),PRES,T(CTD),SAL,OXYGEN,RAWTEMP,T(OPTODE),TCPHASE,TURBIDITY,TURBIDITY_GAIN,FLUOR,BETA,CDOM,ED411.5,ED443.8,ED489.6,PAR,COMP,TILT,TILTY(TILT),CHECK
1340562432,6469,254.5399932861328000,5.8980998992919920,34.8866004943847660,323.4771118164062500,624.4011840820312000,5.8786330223083500,33.2305908203125000,16,3,48,110,63,2147638915,2147394747,2147281677,2148323670,362,1,-4,6497
1340562493,6469,251.1100006103515600,5.9082999229431150,34.8849983215332000,325.0899963378906000,624.0875854492188000,5.8887419700622560,33.1665992736816400,16,3,48,108,64,2147634605,2147393663,2147283062,2148318838,3400,2,-4,55919
1340562558,6467,247.3800048828125000,5.9130001068115230,34.8838005065918000,326.0604858398437500,623.8665161132812000,5.8958678245544430,33.1279411315918000,16,3,50,108,64,2147639478,2147394847,2147283117,2148319249,3018,0,-4,63816
1340562619,6467,243.9199981689453000,5.9201002120971680,34.8830986022949200,327.4447937011719000,623.6369018554688000,5.9032688140869140,33.0745811462402340,16,3,48,107,63,2147633914,2147392538,2147282600,2148320575,2748,0,-4,7546
1340562680,6470,240.4400024414062500,5.9261999130249020,34.8800010681152340,330.3963928222656000,623.5676269531250000,5.9055018424987790,32.9687995910644500,16,3,48,107,63,2147634413,2147393755,2147282610,2148321188,2283,2,-4,5162
1340562741,6469,236.8999938964843800,5.9334998130798340,34.8776016235351560,324.8904113769531000,623.2963256835938000,5.9142441749572750,33.1600494384765600,16,3,48,108,64,2147635913,2147395995,2147279953,2148320680,2036,0,-4,22251
1340562802,6467,233.4600067138672000,5.9883999824523930,34.8792991638183600,321.9869995117187500,621.7363891601562000,5.9644970893859860,33.2373313903808600,16,3,49,107,64,2147634897,2147393498,2147278577,2148321261,1756,0,-4,36445
1340562863,6467,230.1000061035156200,6.0489001274108890,34.8862991333007800,320.9863891601562500,620.0872802734375000,6.0175909996032715,33.2449607849121100,15,3,48,108,64,2147635954,2147395583,2147280401,2148320059,1480,0,-4,62300
1340562924,6469,226.8099975585937500,6.0381999015808105,34.8848991394043000,321.1968994140625000,619.9979858398438000,6.0204658508300780,33.2354316711425800,16,3,48,108,64,2147635030,2147394188,2147281512,2148318491,1131,0,-4,26625
1340562985,6469,223.5399932861328000,6.0647997856140140,34.8872985839843750,321.2742004394531000,619.3068237304688000,6.0427131652832030,33.2205009460449200,16,3,48,114,64,2147635089,2147394682,2147282961,2148319510,861,0,-4,22225
1340563048,6468,220.1799926757812500,6.0897002220153810,34.8883018493652340,322.1911010742187500,618.5043945312500000,6.0685348510742190,33.1733512878418000,16,3,49,107,62,2147637151,2147394080,2147278829,2148319757,484,2,-4,13688
1340563109,6465,216.9499969482422000,6.1097998619079590,34.8898010253906250,323.8666076660156000,617.8353881835938000,6.0900549888610840,33.1006393432617200,16,3,48,109,63,2147638354,2147393764,2147278916,2148319976,3573,1,-4,48091
1340563172,6469,213.6199951171875000,6.1663999557495120,34.8946990966796900,324.4646911621094000,616.1765747070312000,6.1434001922607420,33.0501213073730500,16,3,48,104,64,2147640621,2147394057,2147279099,2148316260,3162,0,-4,24152
1340563233,6469,210.4600067138672000,6.1796998977661130,34.8933982849121100,324.9089050292969000,615.6289062500000000,6.1610088348388670,33.0246696472168000,16,3,48,106,63,2147638833,2147394349,2147279812,2148319770,2809,0,-4,39484
1340563296,6469,207.1699981689453000,6.1816000938415530,34.8941001892089840,325.4522094726562500,616.1691284179688000,6.1436419486999510,33.0145301818847660,15,3,48,104,64,2147638720,2147394216,2147281183,2148321224,2552,1,-4,21464
1340563357,6469,204.0399932861328000,6.0619001388549805,34.8693008422851560,328.5152893066406000,619.0303955078125000,6.0516090393066410,32.9555587768554700,16,3,49,111,63,2147637974,2147396777,2147279666,2148316886,2377,1,-4,58820
1340563420,6467,200.8800048828125000,6.0331997871398930,34.8618011474609400,331.4818115234375000,620.0344238281250000,6.0192952156066895,32.8681297302246100,16,3,48,110,62,2147636420,2147393865,2147279798,2148315835,2171,2,-4,32577
1340563481,6467,197.8600006103515600,6.0047001838684080,34.8538017272949200,334.4596862792969000,620.8488769531250000,5.9930729866027830,32.7786483764648440,16,3,48,115,62,2147638518,2147393160,2147280493,2148315528,1943,0,-4,7523
1340563544,6468,194.7799987792968800,6.1472001075744630,34.8703002929687500,332.0606994628906000,617.0933227539062000,6.1139240264892580,32.7966308593750000,16,3,48,107,62,2147638458,2147393164,2147278198,2148317732,1602,2,-4,52363
1340563605,6467,191.8000030517578000,6.0974998474121090,34.8595008850097660,330.6359863281250000,617.9180908203125000,6.0873970985412600,32.8610191345214840,16,3,48,112,64,2147636410,2147392452,2147280548,2148317083,1391,0,-4,28124
1340563668,6467,188.8699951171875000,6.1932001113891600,34.8684997558593750,327.2827148437500000,615.3911132812500000,6.1686530113220215,32.9357910156250000,16,3,48,111,64,2147640246,2147394738,2147280817,2148316676,1104,2,-4,63210
1340563729,6468,186.0299987792968800,6.2161998748779300,34.8731002807617200,323.9967956542969000,614.5811157226562000,6.1946868896484375,33.0392494201660160,16,3,50,108,64,2147638733,2147394244,2147281892,2148317426,705,1,-4,44928
1340563792,6468,183.1199951171875000,6.1728000640869140,34.8623008728027340,324.3727111816406000,615.6718750000000000,6.1596279144287110,33.0444107055664060,16,3,48,111,64,2147638792,2147393306,2147284346,2148315926,210,0,-4,23245
1340563853,6470,180.3699951171875000,6.2399997711181640,34.8698997497558600,323.7464904785156000,614.0134887695312000,6.2129230499267580,33.0385093688964840,16,3,50,116,64,2147641708,2147393983,2147282029,2148319391,3408,0,-4,28303
1340563916,6467,177.5599975585937500,6.1908998489379880,34.8585014343261700,323.3758850097656000,615.4234008789062000,6.1676158905029300,33.0760383605957000,15,3,48,108,63,2147639542,2147391679,2147278852,2148319012,3118,0,-4,53939
1340563977,6468,174.8899993896484400,6.2009000778198240,34.8555984497070300,325.6341857910156000,614.9232177734375000,6.1836929321289060,32.9863395690918000,16,3,48,108,64,2147639291,2147392969,2147282477,2148318578,2722,0,-4,29326
1340564040,6468,172.2400054931640600,6.2074999809265140,34.8568000793457000,323.8132934570312500,614.7744140625000000,6.1884751319885250,33.0493392944335940,16,3,50,109,64,2147642564,2147394655,2147279807,2148317165,2520,0,-4,65110
1340564101,6467,169.7700042724609400,6.1968002319335940,34.8550987243652340,323.3992004394531000,614.9973754882812000,6.1813068389892580,33.0680503845214840,16,3,50,109,64,2147639803,2147393005,2147278500,2148317096,2359,1,-4,11931
1340564164,6469,167.3399963378906200,6.1501998901367190,34.8437004089355500,326.0725097656250000,616.1226196289062000,6.1451401710510250,32.9915809631347660,16,3,50,112,63,2147638102,2147393832,2147281261,2148319730,2204,0,-4,61786
1340564225,6469,165.1399993896484400,6.1470999717712400,34.8404998779296900,332.5974121093750000,616.4531250000000000,6.1345138549804690,32.7666893005371100,16,3,50,112,62,2147638733,2147393274,2147285371,2148320827,1929,0,-4,47638
1340564315,6467,161.3600006103515600,6.1497998237609860,34.8358001708984400,338.1364135742187500,616.2468872070312000,6.1411399841308590,32.5717506408691400,16,3,49,112,64,2147637814,2147394523,2147286234,2148321763,1538,0,-4,30253
1340564376,6469,157.9600067138672000,6.1911997795104980,34.8381996154785160,331.8313903808594000,615.4622192382812000,6.1663670539855960,32.7762107849121100,16,3,50,110,64,2147632557,2147396584,2147285562,2148320648,1348,0,-4,20107
1340564439,6469,154.5399932861328000,6.1943001747131350,34.8310012817382800,328.1962890625000000,615.2407836914062000,6.1734828948974610,32.9004402160644500,16,3,49,112,63,2147637028,2147391565,2147281594,2148317448,1113,0,-4,56022
1340564500,6468,151.3500061035156200,6.1845002174377440,34.8250999450683600,328.0874023437500000,615.8145751953125000,6.1550412178039550,32.9143486022949200,16,3,50,111,62,2147636282,2147393338,2147281997,2148319839,780,0,-4,48627
1340564563,6468,148.1199951171875000,6.2326002120971680,34.8270988464355500,324.0610046386719000,614.1281127929688000,6.2092418670654300,33.0290718078613300,16,3,50,111,64,2147638559,2147393347,2147285956,2148318024,216,2,-4,49874
1340564624,6468,145.0200042724609400,6.2364001274108890,34.8259010314941400,321.7408142089844000,613.9293212890625000,6.2156300544738770,33.1093101501464840,16,3,48,109,64,2147636547,2147392049,2147284694,2148316927,3442,0,-4,48005
1340564687,6468,141.7200012207031200,6.2467999458312990,34.8219985961914060,319.5928039550781000,613.7045288085938000,6.2228531837463380,33.1835899353027340,16,3,50,108,64,2147639368,2147396397,2147286047,2148320072,2855,0,-4,29182
1340564748,6468,138.4799957275390600,6.1796998977661130,34.8067016601562500,319.0729064941406000,615.4970092773438000,6.1652488708496090,33.2338981628418000,15,3,49,110,64,2147641481,2147396754,2147285274,2148319126,2567,2,-4,29822
1340564811,6465,135.1999969482422000,6.1435999870300290,34.7957992553710940,321.4927978515625000,616.3079833984375000,6.1391768455505370,33.1600685119628900,16,3,50,112,64,2147639313,2147392323,2147288845,2148321105,2273,2,-4,38887
1340564872,6468,132.0000000000000000,6.1599001884460450,34.7942008972168000,324.4515075683594000,615.6381835937500000,6.1607089042663570,33.0411186218261700,16,3,50,112,64,2147638582,2147394536,2147291199,2148320543,2106,2,-4,19570
1340564935,6469,128.7299957275390600,6.2069997787475590,34.7952003479003900,321.5073852539062500,614.7650146484375000,6.1887760162353520,33.1325912475585940,16,3,50,115,64,2147637846,2147396803,2147292571,2148319821,1711,0,-4,51769
1340564996,6467,125.5999984741211000,6.2343001365661620,34.7966003417968750,327.3171081542969000,613.8991699218750000,6.2165970802307130,32.9085807800293000,15,3,50,116,62,2147639039,2147396095,2147297983,2148322527,1336,1,-4,61549
1340565059,6468,122.4800033569336000,6.2954001426696780,34.8008995056152340,334.3760986328125000,612.3037719726562000,6.2678427696228030,32.6329307556152340,16,3,50,116,62,2147637028,2147396008,2147298170,2148322074,922,0,-4,65007
1340565120,6469,119.6200027465820300,6.3001999855041500,34.7971000671386700,344.7893981933594000,611.9204711914062000,6.2801489830017090,32.2716217041015600,16,3,51,120,62,2147639501,2147392022,2147296744,2148323359,378,0,-4,42840
1340565183,6447,116.7399978637695300,6.3013000488281250,34.7966995239257800,348.4645080566406000,611.8159179687500000,6.2835102081298830,32.1476783752441400,16,3,50,123,63,2147640246,2147395958,2147297343,2148321691,98,1,-4,37557
1340565244,6468,113.9899978637695300,6.3067002296447750,34.7938003540039060,349.7015991210937500,611.5806274414062000,6.2910628318786620,32.1025505065918000,16,3,52,122,62,2147640250,2147393288,2147295949,2148322015,3155,0,-4,30024
1340565307,6468,111.1399993896484400,6.3137001991271970,34.7928009033203100,350.6030883789062500,611.4597778320312000,6.2949390411376950,32.0710983276367200,16,3,52,121,62,2147638797,2147392625,2147296205,2148323126,2736,2,-4,19624
1340565368,6468,108.3399963378906200,6.3175001144409180,34.7923011779785160,350.9096984863281000,611.3231811523438000,6.2993259429931640,32.0588302612304700,16,3,52,119,62,2147638697,2147391341,2147298413,2148324154,2496,2,-4,18949
1340565431,6467,105.3300018310546900,6.3274002075195310,34.7919998168945300,351.1011962890625000,610.9973754882812000,6.3097839355468750,32.0467681884765600,16,3,52,123,62,2147638646,2147394934,2147300397,2148322897,2379,0,-4,29560
1340565492,6466,102.3000030517578100,6.3439002037048340,34.7887992858886700,351.6744995117187500,610.4976806640625000,6.3258228302001950,32.0196914672851560,19,3,54,123,61,2147637119,2147395894,2147300813,2148324237,2153,0,-4,23237
1340565555,6468,99.1299972534179700,6.3635997772216800,34.7863998413085940,352.5704956054687500,609.9080810546875000,6.3447442054748535,31.9802703857421880,15,3,54,128,61,2147641759,2147395076,2147306842,2148326779,1992,0,-4,33024
1340565616,6467,96.0699996948242200,6.3780999183654785,34.7843017578125000,353.2139892578125000,609.4478149414062000,6.3595161437988280,31.9514808654785160,16,3,55,126,61,2147639259,2147397677,2147309540,2148325356,1764,0,-4,28179
1340565679,6468,92.9800033569336000,6.3930001258850100,34.7821006774902340,353.8026123046875000,608.9857177734375000,6.3743419647216800,31.9243392944335940,16,3,57,128,62,2147639369,2147396959,2147318687,2148328699,1451,0,-4,42627
1340565740,6468,90.0299987792968800,6.4096999168396000,34.7795982360839840,353.6801147460937500,608.5123901367188000,6.3895230293273930,31.9204292297363280,12,3,56,123,62,2147641673,2147400218,2147324516,2148328461,1124,0,-4,15849
1340565803,6467,87.1299972534179700,6.4169001579284670,34.7781982421875000,352.2651062011719000,608.2194213867188000,6.3989200592041020,31.9612693786621100,16,3,56,120,62,2147641905,2147399917,2147329055,2148328813,754,0,-4,63166
1340565864,6469,84.4199981689453100,6.4510002136230470,34.7732009887695300,352.6687011718750000,607.2457885742188000,6.4301400184631350,31.9317493438720700,16,3,62,133,62,2147636260,2147399528,2147330943,2148328812,514,0,-4,42369
1340565927,6464,81.7399978637695300,6.4837999343872070,34.7734985351562500,352.9146118164062500,606.2658081054688000,6.4615569114685060,31.9069995880126950,15,3,66,131,62,2147639236,2147400150,2147335355,2148331222,45,2,-4,31283
1340565988,6467,79.0800018310546900,6.5117001533508300,34.7719001770019500,355.0434875488281000,605.3897705078125000,6.4896321296691895,31.8233890533447270,16,3,75,136,62,2147638001,2147397814,2147338239,2148332506,3004,2,-4,17887
1340566051,6467,76.3099975585937500,6.5363001823425290,34.7691001892089840,356.4903869628906000,604.5961303710938000,6.5150661468505860,31.7631492614746100,14,3,79,137,62,2147643917,2147402084,2147348356,2148335080,2581,0,-4,1097
1340566112,6468,73.4599990844726600,6.5451998710632320,34.7685012817382800,357.1181030273437500,604.2258300781250000,6.5269260406494140,31.7367191314697270,16,3,80,138,62,2147641604,2147402943,2147365878,2148341892,2437,0,-4,4109
1340566175,6466,70.2399978637695300,6.5802998542785645,34.7661018371582000,356.8960876464844000,603.3338012695312000,6.5554981231689450,31.7289505004882800,16,3,84,136,62,2147643862,2147408383,2147392118,2148349274,2025,2,-4,33651
1340566236,6468,67.0299987792968800,6.6118001937866210,34.7626991271972660,356.6499938964844000,602.3134155273438000,6.5881729125976560,31.7196292877197270,14,3,90,139,63,2147642856,2147411442,2147423748,2148359395,1419,0,-4,23114
1340566299,6469,63.9599990844726560,6.6245999336242680,34.7625007629394500,355.7799987792969000,601.5161132812500000,6.6136932373046875,31.7341194152832030,16,3,91,138,62,2147645325,2147417887,2147456530,2148372032,1208,1,-4,10156
1340566360,6466,61.1899986267089840,6.6522002220153810,34.7588996887207000,355.3241882324219000,601.0462036132812000,6.6287331581115720,31.7408409118652340,15,3,98,141,62,2147646642,2147421983,2147479163,2148381818,55,2,-4,16764
1340566423,6468,58.5900001525878900,6.6842999458312990,34.7574996948242200,355.2314147949219000,600.3416748046875000,6.6512780189514160,31.7318000793457030,16,3,104,141,62,2147646778,2147428136,2147508744,2148391469,3132,0,-4,31552
1340566484,6469,56.2400016784668000,6.7213001251220700,34.7556991577148440,354.9482116699219000,598.8270874023438000,6.6997280120849610,31.7153606414794920,21,3,110,149,62,2147652918,2147433673,2147524013,2148402189,3039,0,-4,6878
1340566573,6469,52.5499992370605500,6.8706998825073240,34.7513999938964840,354.7951965332031000,594.0587158203125000,6.8521208763122560,31.6402797698974600,19,3,138,165,63,2147655729,2147438385,2147554907,2148420589,2620,2,-4,47382
1340566634,6470,49.5400009155273440,7.0409998893737790,34.7540016174316400,354.9287109375000000,589.5709228515625000,6.9953541755676270,31.5614490509033200,20,3,150,167,62,2147660799,2147449700,2147596333,2148444045,1639,0,-4,44900
1340566697,6470,46.7700004577636700,7.3372001647949220,34.7523994445800800,352.3619995117187500,578.1887207031250000,7.3577961921691895,31.4561901092529300,21,3,190,199,62,2147661827,2147454217,2147621613,2148461142,1858,2,-4,44275
1340566758,6470,44.6300010681152340,7.6125001907348630,34.7524986267089840,353.0495910644531000,570.1406860351562000,7.6133608818054200,31.3026409149169920,24,3,223,210,63,2147666180,2147457403,2147645727,2148483962,1345,0,-4,32193
1340566848,6469,41.2500000000000000,8.2757997512817380,34.7452011108398440,350.7542114257812500,549.9119262695312000,8.2532472610473630,31.0516109466552730,30,3,318,250,62,2147672054,2147457649,2147606051,2148472996,271,2,-5,48352
1340566909,6470,38.4700012207031250,8.9874000549316400,34.7210998535156250,349.4357910156250000,528.6348266601562000,8.9226455688476560,30.7602405548095700,40,3,443,330,64,2147690454,2147493878,2147806476,2148592278,3325,2,-4,11585
1340566972,6471,36.0000000000000000,9.4545001983642580,34.7221984863281250,350.3934020996094000,515.5781860351562000,9.3316755294799800,30.5286407470703120,49,3,577,392,63,2147710495,2147524282,2147904900,2148648954,2770,2,-4,33397
1340567033,6470,33.7400016784668000,9.7843999862670900,34.7298011779785160,349.1369018554687500,500.4075012207031000,9.8053569793701170,30.3388099670410160,51,3,459,388,63,2147727844,2147529997,2147859972,2148618806,2005,0,-6,53211
1340567123,6473,29.7500000000000000,10.1444997787475590,34.7228012084960940,361.3500976562500000,490.1476135253906000,10.1247797012329100,29.8042106628417970,97,3,1947,916,66,2148029947,2148057155,2149629631,2149440548,1511,1,-4,32411
1340567184,6469,26.0400009155273440,10.6702995300292970,34.7206001281738300,363.4876098632812500,471.0593872070312500,10.7172098159790040,29.4600791931152340,94,3,844,601,66,2148308480,2148386929,2150164022,2149651049,807,1,-6,57932
1340567247,6470,22.6299991607666000,11.5626001358032230,34.7187004089355500,359.1216125488281000,445.7492980957031000,11.4992504119873050,29.2301902770996100,115,3,584,527,63,2149056022,2149483295,2153085636,2151131277,1164,0,-4,41105
1340567308,6471,20.4099998474121100,11.9774999618530270,34.7145004272460940,360.4725952148437500,433.0432128906250000,11.8904695510864260,29.0103797912597660,102,3,816,627,62,2149836278,2150538701,2155336781,2152194870,733,0,-4,41400
1340567397,6469,17.1599998474121100,12.1099004745483400,34.7172012329101560,364.7576904296875000,426.2813110351562500,12.0983200073242190,28.7878398895263670,105,3,833,633,62,2153213037,2155086696,2163969937,2156231734,3079,2,-5,53364
1340567458,6469,13.8900003433227540,12.6043996810913090,34.7145996093750000,362.6730041503906000,411.1955871582031000,12.5612001419067380,28.6421298980712900,104,3,624,636,61,2157446532,2160233151,2171328100,2159645695,2773,2,-6,44460
1340567521,6470,10.8000001907348630,12.6593999862670900,34.7218017578125000,360.7958068847656000,408.0794067382812500,12.6566696166992190,28.6555900573730470,102,3,554,582,60,2166015295,2170739231,2186846230,2167572209,2159,-2,-5,37071
1340567582,6503,7.6300001144409180,12.9734001159667970,34.7206001281738300,356.5347900390625000,396.9325866699219000,12.9978399276733400,28.6321296691894530,107,3,466,604,61,2172122852,2174530271,2182948319,2165896740,1758,1,-3,5069
1340567636,6471,5.0599999427795410,13.1497001647949220,34.7233009338378900,354.3537902832031000,392.2131958007812500,13.1421203613281250,28.6344299316406250,97,3,430,525,61,2187837283,2191356978,2200935624,2177631226,224,5,-4,26659
1340567684,6468,3.8299999237060547,0.0000000000000000,0.0000000000000000,353.6272888183594000,390.0906982421875000,13.2069797515869140,28.6279296875000000,92,3,421,513,60,2199258573,2204061120,2215372410,2187819149,335,-1,-1,11253
1340567728,6468,1.8400000333786010,0.0000000000000000,0.0000000000000000,353.2835083007812500,389.5480041503906000,13.2235603332519530,28.6312294006347660,103,3,320,511,62,2222245636,2229097645,2241481092,2212027794,3315,3,-7,63137
